#timestamp,LO_Frequency,Hit 
1499817615.7,286047002.7,N
1499817635.5,286047001.6,N
1499817655.4,286047002.2,N
1499817675.2,286047002.2,N
1499817695.1,286047002.1,N
1499817696.0,286047002.1,N
1499817715.8,286047002.1,N
1499817735.6,286047002.2,N
1499817755.5,286047003.9,N
1499817775.3,286047002.0,N
1499817795.2,286047002.8,N
1499817815.9,286046999.7,N
1499817835.7,286047000.3,N
1499817855.6,286047002.7,N
1499817875.4,286047002.8,N
1499817895.2,286046999.8,N
1499817915.1,286046999.8,N
1499817916.0,286046999.8,N
1499817935.8,286047002.7,N
1499817955.7,286047002.6,N
1499817975.5,286047002.2,N
1499817995.3,286047002.5,N
1499818015.2,286047002.5,N
1499818035.0,286047000.2,N
1499818035.9,286047000.2,N
1499818055.8,286047002.1,N
1499818075.6,286047002.6,N
1499818095.4,286047002.7,N
1499818115.3,286046999.7,N
1499818135.1,286046999.8,N
1499818155.8,286047000.1,N
1499818175.7,286047002.8,N
1499818195.5,286046999.7,N
1499818215.4,286047002.1,N
1499818235.2,286047002.7,N
1499818255.0,286047001.7,N
1499818255.9,286047001.7,N
1499818275.8,286047002.5,N
1499818295.6,286047002.8,N
1499818315.4,286047004.1,N
1499818335.3,286047004.3,N
1499818355.1,286047002.4,N
1499818375.9,286046999.8,N
1499818395.7,286046999.8,N
1499818415.5,286047000.3,N
1499818435.4,286047002.5,N
1499818455.2,286047002.2,N
1499818475.0,286047002.1,N
1499818475.9,286047002.1,N
1499818495.8,286047002.1,N
1499818515.6,286047001.6,N
1499818535.5,286047001.9,N
1499818555.3,286047001.7,N
1499818575.1,286047001.5,N
1499818595.9,286047002.1,N
1499818615.7,286047002.1,N
1499818635.5,286047001.6,N
1499818655.4,286047001.9,N
1499818675.2,286047002.7,N
1499818695.1,286047001.5,N
1499818696.0,286047001.5,N
1499818715.8,286047001.9,N
1499818735.6,286047002.2,N
1499818755.5,286047002.0,N
1499818775.3,286047002.1,N
1499818795.1,286047002.4,N
1499818815.9,286047002.0,N
1499818835.7,286047002.2,N
1499818855.6,286047002.1,N
1499818875.4,286047002.3,N
1499818895.2,286047002.8,N
1499818915.1,286047002.0,N
1499818916.0,286047002.0,N
1499818935.8,286047002.1,N
1499818955.6,286047002.0,N
1499818975.5,286047002.5,N
1499818995.3,286047001.9,N
1499819015.2,286047002.3,N
1499819035.9,286047002.0,N
1499819055.7,286047001.8,N
1499819075.6,286047004.4,N
1499819095.4,286047001.8,N
1499819115.2,286047004.2,N
1499819135.1,286047001.5,N
1499819136.0,286047001.5,N
1499819155.8,286047004.3,N
1499819175.7,286047001.5,N
1499819195.5,286047001.4,N
1499819215.3,286047004.0,N
1499819235.2,286047002.1,N
1499819255.9,286047002.1,N
1499819275.7,286047004.0,N
1499819295.6,286047004.2,N
1499819315.4,286047003.9,N
1499819335.2,286047004.3,N
1499819355.1,286047004.2,N
1499819356.0,286047004.2,N
1499819375.8,286047001.3,N
1499819395.7,286047004.3,N
1499819415.5,286047004.0,N
1499819435.3,286047004.0,N
1499819455.2,286047004.0,N
1499819475.0,286047001.5,N
1499819475.9,286047001.5,N
1499819495.7,286047001.5,N
1499819515.6,286047002.0,N
1499819535.4,286047002.0,N
1499819555.3,286047003.7,N
1499819575.1,286047003.8,N
1499819576.0,286047003.8,N
1499819595.8,286047003.6,N
1499819615.7,286047004.0,N
1499819635.5,286047004.4,N
1499819655.3,286047004.4,N
1499819675.2,286047004.3,N
1499819695.0,286047003.4,N
1499819695.9,286047003.4,N
1499819715.8,286047003.9,N
1499819735.6,286047003.6,N
1499819755.4,286047003.8,N
1499819775.3,286047004.0,N
1499819795.1,286047001.7,N
1499819815.8,286047004.2,N
1499819835.7,286047003.6,N
1499819855.5,286047004.4,N
1499819875.4,286047003.9,N
1499819895.2,286047004.4,N
1499819915.0,286047001.7,N
1499819915.9,286047001.7,N
1499819935.8,286047001.7,N
1499819955.6,286047001.5,N
1499819975.4,286047001.7,N
1499819995.3,286047001.7,N
1499820015.1,286047003.9,N
1499820035.9,286047002.1,N
1499820055.7,286047003.8,N
1499820075.5,286047003.8,N
1499820095.4,286047004.3,N
1499820115.2,286047002.1,N
1499820135.0,286047001.5,N
1499820135.9,286047001.5,N
1499820155.8,286047001.3,N
1499820175.6,286047002.4,N
1499820195.5,286047001.9,N
1499820215.3,286047002.0,N
1499820235.1,286047004.2,N
1499820255.9,286047001.7,N
1499820275.7,286047003.1,N
1499820295.5,286047001.6,N
1499820315.4,286047001.6,N
1499820335.2,286047001.9,N
1499820355.0,286047002.7,N
1499820356.0,286047002.7,N
1499820375.8,286047001.8,N
1499820395.6,286046999.8,N
1499820415.5,286047000.1,N
1499820435.3,286047002.7,N
1499820455.1,286047000.2,N
1499820475.9,286047000.1,N
1499820495.7,286047000.2,N
1499820515.6,286046999.7,N
1499820535.4,286046999.7,N
1499820555.2,286047000.7,N
1499820575.1,286047000.3,N
1499820576.0,286047000.3,N
1499820595.8,286047000.3,N
1499820615.6,286047000.0,N
1499820635.5,286046999.8,N
1499820655.3,286047000.2,N
1499820675.2,286047000.8,N
1499820695.9,286047000.2,N
1499820715.7,286047000.3,N
1499820735.6,286047000.3,N
1499820755.4,286047000.5,N
1499820775.2,286047000.9,N
1499820795.1,286047000.2,N
1499820796.0,286047000.2,N
1499820815.8,286046999.7,N
1499820835.7,286047000.1,N
1499820855.5,286047002.4,N
1499820875.3,286047002.3,N
1499820895.2,286047002.4,N
1499820915.0,286047000.1,N
1499820915.9,286047000.1,N
1499820935.7,286047000.0,N
1499820955.6,286047000.0,N
1499820975.4,286046999.8,N
1499820995.3,286047000.6,N
1499821015.1,286047000.1,N
1499821016.0,286047000.1,N
1499821035.8,286047002.7,N
1499821055.7,286047002.4,N
1499821075.5,286047002.4,N
1499821095.3,286047002.7,N
1499821115.2,286047002.0,N
1499821135.0,286047002.7,N
1499821135.9,286047002.7,N
1499821155.8,286047002.5,N
1499821175.6,286047000.5,N
1499821195.4,286047000.2,N
